Weather History for Dillon, MT

Change the Weather History Date:

Friday, September 6, 2013

  Actual Average Record
Temperature  
Mean Temperature 68 °F 59 °F  
Max Temperature 86 °F 74 °F 90 °F (1988)
Min Temperature 50 °F 43 °F 29 °F (1948)
Degree Days  
Heating Degree Days 0    
Month to date heating degree days 1  
Since 1 July heating degree days 7  
Cooling Degree Days 3    
Month to date cooling degree days 16  
Year to date cooling degree days 244  
Growing Degree Days 18 (Base 50)    
Moisture  
Dew Point 51 °F    
Average Humidity 60    
Maximum Humidity 96    
Minimum Humidity 24    
Precipitation  
Precipitation 0.00 in 0.03 in 0.54 in (2001)
Month to date precipitation 0.23 0.19  
Year to date precipitation 7.17 8.49  
Snow  
Snow 0.00 in - - ()
Snow Depth 0.00 in    
Sea Level Pressure  
Sea Level Pressure 29.96 in    
Wind  
Wind Speed 8 mph (South)    
Max Wind Speed 23 mph    
Max Gust Speed 31 mph    
Visibility 10 miles    
Events      
T = Trace of Precipitation, MM = Missing Value Source: NWS Daily Summary

Daily Weather History Graph

Daily Weather History Graph

Search for Another Location

Airport:

Trip Planner

Search our weather history database for the weather conditions in past years. The results will help you decide how hot, cold, wet, or windy it might be!

Date:

Astronomy

Sep. 06, 2013 Rise Set
Actual Time 6:58 AM MDT 7:57 PM MDT
Civil Twilight 6:28 AM MDT 8:27 PM MDT
Nautical Twilight 5:52 AM MDT 9:03 PM MDT
Astronomical Twilight 5:14 AM MDT 9:41 PM MDT
Moon 8:20 AM MDT (9/6) 8:16 PM MDT (9/6)
Length of Visible Light 13h 59m
Length of Day
12h 59m
New Moon, 2% of the Moon is Illuminated
Sep 6
New Moon
Sep 12
First Quarter
Sep 19
Full
Sep 26
Last Quarter
Oct 4
New

Hourly Weather History & Observations

Time (MDT) Temp. Heat Index Dew Point Humidity Pressure Visibility Wind Dir Wind Speed Gust Speed Precip Events Conditions
12:53 AM 55.0 °F - 53.1 °F 93% 30.02 in 10.0 mi SSW 8.1 mph - N/A   Clear
1:53 AM 57.0 °F - 55.0 °F 93% 30.03 in 10.0 mi SW 9.2 mph - N/A   Mostly Cloudy
2:53 AM 57.0 °F - 54.0 °F 89% 30.00 in 10.0 mi WSW 3.5 mph - N/A   Partly Cloudy
3:53 AM 55.0 °F - 53.1 °F 93% 30.01 in 10.0 mi SSW 6.9 mph - N/A   Partly Cloudy
4:53 AM 55.0 °F - 53.1 °F 93% 29.99 in 10.0 mi SE 5.8 mph - N/A   Clear
5:53 AM 51.1 °F - 50.0 °F 96% 30.02 in 10.0 mi Calm Calm - N/A   Clear
6:53 AM 52.0 °F - 50.0 °F 93% 30.03 in 10.0 mi SSE 8.1 mph - N/A   Clear
7:53 AM 54.0 °F - 52.0 °F 93% 30.04 in 10.0 mi SE 4.6 mph - N/A   Clear
8:53 AM 57.9 °F - 55.0 °F 90% 30.04 in 10.0 mi Calm Calm - N/A   Clear
9:53 AM 61.0 °F - 55.0 °F 81% 30.04 in 10.0 mi West 3.5 mph - N/A   Clear
10:53 AM 64.0 °F - 55.0 °F 73% 30.03 in 10.0 mi Variable 3.5 mph - N/A   Clear
11:53 AM 66.9 °F - 54.0 °F 63% 30.02 in 10.0 mi Calm Calm - N/A   Clear
12:53 PM 72.0 °F - 53.1 °F 51% 29.99 in 10.0 mi NNW 3.5 mph - N/A   Clear
1:53 PM 75.0 °F - 55.0 °F 50% 29.96 in 10.0 mi Variable 3.5 mph - N/A   Clear
2:53 PM 79.0 °F - 55.9 °F 45% 29.91 in 10.0 mi North 6.9 mph - N/A   Clear
3:53 PM 80.1 °F 80.1 °F 55.0 °F 42% 29.88 in 10.0 mi Variable 5.8 mph - N/A   Partly Cloudy
4:53 PM 82.9 °F - 46.9 °F 28% 29.86 in 10.0 mi South 12.7 mph 19.6 mph N/A   Clear
5:53 PM 84.0 °F - 44.1 °F 25% 29.86 in 10.0 mi South 16.1 mph 26.5 mph N/A   Clear
6:53 PM 82.0 °F - 43.0 °F 25% 29.86 in 10.0 mi South 20.7 mph 28.8 mph N/A   Clear
7:53 PM 77.0 °F - 48.9 °F 37% 29.88 in 10.0 mi SSE 19.6 mph 27.6 mph N/A   Clear
8:53 PM 75.9 °F - 46.9 °F 36% 29.89 in 10.0 mi South 19.6 mph 25.3 mph N/A   Partly Cloudy
9:53 PM 75.9 °F - 45.0 °F 33% 29.89 in 10.0 mi South 12.7 mph 21.9 mph N/A   Partly Cloudy
10:53 PM 70.0 °F - 46.9 °F 44% 29.92 in 10.0 mi West 4.6 mph - N/A   Mostly Cloudy
11:53 PM 69.1 °F - 46.9 °F 45% 29.94 in 10.0 mi SSE 8.1 mph - N/A   Clear